{"data":{"norad_id":55633,"epoch":"2026-05-25T00:43:10.888032Z","epoch_age_seconds":65776,"freshness":"FRESH","line1":"1 55633U 23021F   26145.02998713 -.00003848  00000+0 -31476-3 0  9995","line2":"2 55633  69.9997  11.9607 0002967 263.5393  96.5428 14.98341766179732","mean_motion":14.98341766,"eccentricity":0.0002967,"inclination_deg":69.9997,"raan_deg":11.9607,"arg_perigee_deg":263.5393,"mean_anomaly_deg":96.5428,"bstar":-0.00031476,"rev_number":17973,"period_min":96.106244428082,"perigee_km":569.95739436283,"apogee_km":574.08161723337,"semimajor_km":6950.1565057981,"source":"CELESTRAK","updated_at":"2026-05-25T13:38:17.847692Z"}}